EUS7LM ENBR-EKVG

Flight info

Callsign EUS7LM
Flight time 1h 10m
Altitude 38000
Route REKLI DCT VALDI/M077F380 DCT ROBUR
Aircraft B738/M-SDE2E3FGHIRWXY/LB1

Departure

Time 2026-05-08 21:48
Airport Bergen Airport, Flesland (ENBR)

Arrival

Time 2026-05-08 22:59
Airport Vágar Airport (EKVG)
Time Latitude Longitude Altitude Speed Heading
2026-05-08 21:19 60.28263 5.22721 176 ft 0 kts 132°
2026-05-08 21:38 60.28264 5.22720 176 ft 2 kts 132°
2026-05-08 21:38 60.28275 5.22696 176 ft 2 kts 133°
2026-05-08 21:38 60.28286 5.22672 177 ft 2 kts 134°
2026-05-08 21:39 60.28297 5.22649 178 ft 2 kts 134°
2026-05-08 21:39 60.28298 5.22647 178 ft 0 kts 134°
2026-05-08 21:41 60.28281 5.22649 178 ft 1 kts 207°
2026-05-08 21:41 60.28278 5.22634 179 ft 1 kts 258°
2026-05-08 21:41 60.28288 5.22615 179 ft 4 kts 328°
2026-05-08 21:41 60.28376 5.22581 176 ft 18 kts 351°
2026-05-08 21:42 60.28523 5.22531 173 ft 28 kts 350°
2026-05-08 21:42 60.28675 5.22471 173 ft 14 kts 317°
2026-05-08 21:42 60.28732 5.22344 173 ft 13 kts 353°
2026-05-08 21:42 60.28822 5.22315 173 ft 13 kts 350°
2026-05-08 21:43 60.28942 5.22272 173 ft 24 kts 350°
2026-05-08 21:43 60.29113 5.22218 173 ft 25 kts 351°
2026-05-08 21:43 60.29276 5.22163 177 ft 23 kts 350°
2026-05-08 21:43 60.29433 5.22108 175 ft 23 kts 351°
2026-05-08 21:44 60.29616 5.22046 170 ft 29 kts 350°
2026-05-08 21:44 60.29808 5.21985 167 ft 27 kts 351°
2026-05-08 21:44 60.29987 5.21928 167 ft 25 kts 351°
2026-05-08 21:44 60.30154 5.21873 170 ft 23 kts 350°
2026-05-08 21:45 60.30325 5.21815 170 ft 26 kts 351°
2026-05-08 21:45 60.30445 5.21777 171 ft 25 kts 350°
2026-05-08 21:45 60.30647 5.21705 176 ft 16 kts 333°
2026-05-08 21:45 60.30669 5.21597 177 ft 0 kts 263°
2026-05-08 21:46 60.30666 5.21559 177 ft 9 kts 262°
2026-05-08 21:46 60.30658 5.21459 178 ft 11 kts 251°
2026-05-08 21:46 60.30594 5.21406 177 ft 11 kts 170°
2026-05-08 21:47 60.30537 5.21425 173 ft 0 kts 171°
2026-05-08 21:47 60.30523 5.21430 172 ft 9 kts 171°
2026-05-08 21:47 60.30222 5.21531 167 ft 82 kts 171°
2026-05-08 21:47 60.29436 5.21782 183 ft 144 kts 169°
2026-05-08 21:48 60.28365 5.22103 694 ft 161 kts 169°
2026-05-08 21:48 60.27335 5.22445 1931 ft 136 kts 173°
2026-05-08 21:48 60.26418 5.22745 2879 ft 136 kts 175°
2026-05-08 21:48 60.25380 5.23075 3184 ft 168 kts 174°
2026-05-08 21:49 60.24128 5.23481 3413 ft 195 kts 174°
2026-05-08 21:49 60.22707 5.23951 3623 ft 220 kts 173°
2026-05-08 21:49 60.21145 5.24477 4132 ft 233 kts 173°
2026-05-08 21:49 60.19539 5.25025 5026 ft 235 kts 173°
2026-05-08 21:50 60.17916 5.25578 5851 ft 239 kts 173°
2026-05-08 21:50 60.16262 5.26139 6644 ft 244 kts 173°
2026-05-08 21:50 60.14570 5.26713 7398 ft 249 kts 173°
2026-05-08 21:50 60.12845 5.27231 8148 ft 252 kts 181°
2026-05-08 21:51 60.11137 5.26546 8899 ft 253 kts 206°
2026-05-08 21:51 60.09733 5.24428 9719 ft 256 kts 228°
2026-05-08 21:51 60.08830 5.21333 10465 ft 264 kts 249°
2026-05-08 21:51 60.08461 5.17689 11209 ft 270 kts 263°
2026-05-08 21:52 60.08775 5.13926 11933 ft 284 kts 288°
2026-05-08 21:52 60.09913 5.10572 12556 ft 305 kts 311°
2026-05-08 21:52 60.11843 5.08319 12740 ft 341 kts 339°
2026-05-08 21:52 60.14222 5.07119 12959 ft 365 kts 344°
2026-05-08 21:53 60.16758 5.06054 13404 ft 378 kts 345°
2026-05-08 21:53 60.19339 5.04935 14116 ft 382 kts 344°
2026-05-08 21:53 60.21945 5.03733 14841 ft 385 kts 343°
2026-05-08 21:53 60.24536 5.02380 15633 ft 383 kts 335°
2026-05-08 21:54 60.26794 4.99660 16254 ft 377 kts 312°
2026-05-08 21:54 60.28443 4.95648 16969 ft 370 kts 295°
2026-05-08 21:54 60.29461 4.90935 17717 ft 366 kts 284°
2026-05-08 21:54 60.30292 4.86067 18445 ft 368 kts 283°
2026-05-08 21:55 60.31096 4.81140 19057 ft 372 kts 283°
2026-05-08 21:55 60.31904 4.76159 19662 ft 375 kts 283°
2026-05-08 21:55 60.32726 4.71145 20273 ft 378 kts 283°
2026-05-08 21:56 60.34407 4.61011 21457 ft 384 kts 283°
2026-05-08 21:56 60.35253 4.55944 22015 ft 387 kts 283°
2026-05-08 21:56 60.36119 4.50763 22581 ft 391 kts 283°
2026-05-08 21:56 60.36987 4.45556 23138 ft 393 kts 283°
2026-05-08 21:57 60.37864 4.40291 23668 ft 397 kts 282°
2026-05-08 21:57 60.38745 4.34980 24131 ft 399 kts 282°
2026-05-08 21:57 60.39628 4.29647 24645 ft 400 kts 282°
2026-05-08 21:57 60.40510 4.24311 25155 ft 400 kts 282°
2026-05-08 21:58 60.41387 4.18978 25650 ft 401 kts 282°
2026-05-08 21:58 60.42267 4.13613 26108 ft 402 kts 282°
2026-05-08 21:58 60.43147 4.08227 26559 ft 404 kts 282°
2026-05-08 21:58 60.44029 4.02822 27014 ft 405 kts 282°
2026-05-08 21:59 60.44910 3.97402 27467 ft 405 kts 282°
2026-05-08 21:59 60.45794 3.91968 27898 ft 407 kts 282°
2026-05-08 21:59 60.46797 3.86586 28309 ft 411 kts 285°
2026-05-08 21:59 60.47913 3.81230 28733 ft 413 kts 286°
2026-05-08 22:00 60.49071 3.75879 29114 ft 415 kts 286°
2026-05-08 22:00 60.50238 3.70518 29509 ft 416 kts 286°
2026-05-08 22:00 60.51398 3.65149 29881 ft 417 kts 286°
2026-05-08 22:00 60.52550 3.59752 30303 ft 416 kts 285°
2026-05-08 22:01 60.53688 3.54373 30726 ft 414 kts 285°
2026-05-08 22:01 60.54816 3.48995 31066 ft 414 kts 285°
2026-05-08 22:01 60.55939 3.43601 31357 ft 415 kts 285°
2026-05-08 22:01 60.57057 3.38208 31694 ft 415 kts 285°
2026-05-08 22:02 60.58179 3.32776 32040 ft 415 kts 285°
2026-05-08 22:02 60.59290 3.27378 32345 ft 416 kts 285°
2026-05-08 22:02 60.60406 3.21942 32633 ft 417 kts 285°
2026-05-08 22:02 60.61523 3.16493 32924 ft 417 kts 285°
2026-05-08 22:03 60.62636 3.11045 33230 ft 418 kts 286°
2026-05-08 22:03 60.63755 3.05551 33510 ft 419 kts 286°
2026-05-08 22:03 60.64867 3.00084 33773 ft 420 kts 286°
2026-05-08 22:03 60.65987 2.94555 34060 ft 421 kts 286°
2026-05-08 22:04 60.67105 2.89029 34288 ft 422 kts 286°
2026-05-08 22:04 60.68221 2.83494 34493 ft 423 kts 286°
2026-05-08 22:04 60.69341 2.77923 34699 ft 425 kts 286°
2026-05-08 22:04 60.70462 2.72336 34912 ft 426 kts 287°
2026-05-08 22:05 60.71583 2.66733 35124 ft 426 kts 287°
2026-05-08 22:05 60.72704 2.61109 35310 ft 428 kts 287°
2026-05-08 22:05 60.73824 2.55480 35511 ft 429 kts 287°
2026-05-08 22:05 60.74946 2.49823 35729 ft 430 kts 287°
2026-05-08 22:06 60.76068 2.44149 35918 ft 431 kts 287°
2026-05-08 22:06 60.77191 2.38455 36104 ft 432 kts 287°
2026-05-08 22:06 60.78311 2.32759 36305 ft 433 kts 287°
2026-05-08 22:06 60.79433 2.27034 36489 ft 434 kts 287°
2026-05-08 22:07 60.80541 2.21370 36701 ft 434 kts 287°
2026-05-08 22:07 60.81663 2.15616 36873 ft 435 kts 287°
2026-05-08 22:07 60.82800 2.09765 37071 ft 436 kts 287°
2026-05-08 22:07 60.83907 2.04055 37254 ft 437 kts 287°
2026-05-08 22:08 60.85024 1.98273 37455 ft 437 kts 287°
2026-05-08 22:08 60.86143 1.92468 37640 ft 438 kts 287°
2026-05-08 22:08 60.87261 1.86650 37821 ft 438 kts 287°
2026-05-08 22:08 60.88378 1.80819 37998 ft 439 kts 287°
2026-05-08 22:09 60.89491 1.74988 38074 ft 441 kts 287°
2026-05-08 22:09 60.91730 1.63216 38084 ft 441 kts 287°
2026-05-08 22:10 60.93944 1.51506 38069 ft 438 kts 287°
2026-05-08 22:10 60.96138 1.39834 38061 ft 436 kts 287°
2026-05-08 22:11 60.98310 1.28203 38065 ft 434 kts 287°
2026-05-08 22:11 61.00462 1.16607 38068 ft 433 kts 287°
2026-05-08 22:12 61.02607 1.04983 38060 ft 434 kts 287°
2026-05-08 22:12 61.04743 0.93332 38054 ft 435 kts 287°
2026-05-08 22:13 61.06881 0.81602 38053 ft 437 kts 287°
2026-05-08 22:13 61.09020 0.69799 38050 ft 440 kts 287°
2026-05-08 22:14 61.11158 0.57922 38045 ft 442 kts 287°
2026-05-08 22:14 61.13293 0.45996 38039 ft 443 kts 287°
2026-05-08 22:15 61.15426 0.34001 38029 ft 444 kts 287°
2026-05-08 22:15 61.17553 0.21970 38027 ft 445 kts 286°
2026-05-08 22:16 61.19652 0.10025 38020 ft 444 kts 286°
2026-05-08 22:16 61.21708 -0.02035 38010 ft 441 kts 283°
2026-05-08 22:17 61.23331 -0.14261 38013 ft 439 kts 281°
2026-05-08 22:17 61.24836 -0.26522 38008 ft 437 kts 281°
2026-05-08 22:18 61.26342 -0.38751 37997 ft 436 kts 281°
2026-05-08 22:18 61.27855 -0.50931 37993 ft 435 kts 281°
2026-05-08 22:19 61.29366 -0.63118 37995 ft 434 kts 281°
2026-05-08 22:19 61.30864 -0.75274 37989 ft 433 kts 281°
2026-05-08 22:20 61.32348 -0.87429 37987 ft 433 kts 280°
2026-05-08 22:20 61.33819 -0.99582 37981 ft 434 kts 281°
2026-05-08 22:21 61.35283 -1.11782 37979 ft 434 kts 280°
2026-05-08 22:21 61.36740 -1.24011 37972 ft 435 kts 280°
2026-05-08 22:22 61.38187 -1.36254 37969 ft 436 kts 280°
2026-05-08 22:22 61.39625 -1.48546 37960 ft 436 kts 280°
2026-05-08 22:23 61.41053 -1.60852 37960 ft 437 kts 280°
2026-05-08 22:23 61.42474 -1.73203 37957 ft 437 kts 280°
2026-05-08 22:24 61.43885 -1.85580 37957 ft 438 kts 280°
2026-05-08 22:24 61.45285 -1.97966 37948 ft 438 kts 280°
2026-05-08 22:25 61.46667 -2.10309 37952 ft 439 kts 280°
2026-05-08 22:25 61.48048 -2.22741 37940 ft 439 kts 279°
2026-05-08 22:26 61.49419 -2.35212 37945 ft 440 kts 279°
2026-05-08 22:26 61.50781 -2.47703 37941 ft 440 kts 279°
2026-05-08 22:27 61.52129 -2.60192 37936 ft 440 kts 279°
2026-05-08 22:27 61.53470 -2.72732 37644 ft 445 kts 279°
2026-05-08 22:27 61.54142 -2.79069 37137 ft 445 kts 279°
2026-05-08 22:28 61.54811 -2.85396 36538 ft 444 kts 279°
2026-05-08 22:28 61.55476 -2.91705 35950 ft 442 kts 278°
2026-05-08 22:28 61.56137 -2.98012 35319 ft 443 kts 278°
2026-05-08 22:28 61.56795 -3.04325 34737 ft 442 kts 278°
2026-05-08 22:29 61.57444 -3.10575 34291 ft 437 kts 278°
2026-05-08 22:29 61.58087 -3.16794 33806 ft 434 kts 277°
2026-05-08 22:29 61.58721 -3.22960 33278 ft 430 kts 277°
2026-05-08 22:29 61.59346 -3.29066 32797 ft 425 kts 277°
2026-05-08 22:30 61.59959 -3.35082 32352 ft 420 kts 277°
2026-05-08 22:30 61.60563 -3.41048 31929 ft 414 kts 277°
2026-05-08 22:30 61.61157 -3.46929 31701 ft 411 kts 277°
2026-05-08 22:30 61.61749 -3.52875 31468 ft 423 kts 276°
2026-05-08 22:31 61.62355 -3.59016 31231 ft 434 kts 276°
2026-05-08 22:31 61.62972 -3.65273 30990 ft 439 kts 276°
2026-05-08 22:31 61.63592 -3.71542 30734 ft 436 kts 276°
2026-05-08 22:31 61.64001 -3.75674 30571 ft 435 kts 276°
2026-05-08 22:32 61.64611 -3.81874 30324 ft 433 kts 276°
2026-05-08 22:32 61.65218 -3.88072 30098 ft 432 kts 276°
2026-05-08 22:32 61.65820 -3.94258 29833 ft 431 kts 276°
2026-05-08 22:32 61.66417 -4.00440 29462 ft 430 kts 276°
2026-05-08 22:33 61.67009 -4.06599 28833 ft 425 kts 276°
2026-05-08 22:33 61.67589 -4.12639 28233 ft 419 kts 276°
2026-05-08 22:33 61.68158 -4.18610 27692 ft 413 kts 276°
2026-05-08 22:33 61.68716 -4.24489 27154 ft 408 kts 275°
2026-05-08 22:34 61.69266 -4.30327 26617 ft 403 kts 275°
2026-05-08 22:34 61.69806 -4.36089 26075 ft 399 kts 275°
2026-05-08 22:34 61.70336 -4.41778 25552 ft 395 kts 275°
2026-05-08 22:34 61.70860 -4.47431 25018 ft 391 kts 275°
2026-05-08 22:35 61.71377 -4.53037 24502 ft 388 kts 275°
2026-05-08 22:35 61.71888 -4.58598 23985 ft 385 kts 275°
2026-05-08 22:35 61.72392 -4.64118 23473 ft 382 kts 275°
2026-05-08 22:35 61.72890 -4.69586 22875 ft 379 kts 275°
2026-05-08 22:36 61.73382 -4.75016 22362 ft 375 kts 275°
2026-05-08 22:36 61.73867 -4.80387 21849 ft 371 kts 275°
2026-05-08 22:36 61.74338 -4.85635 21360 ft 367 kts 275°
2026-05-08 22:36 61.74810 -4.90910 20848 ft 364 kts 275°
2026-05-08 22:37 61.75274 -4.96131 20329 ft 362 kts 275°
2026-05-08 22:37 61.75734 -5.01334 19845 ft 359 kts 275°
2026-05-08 22:37 61.76192 -5.06532 19355 ft 359 kts 275°
2026-05-08 22:37 61.76645 -5.11713 18870 ft 358 kts 275°
2026-05-08 22:38 61.77097 -5.16900 18389 ft 363 kts 275°
2026-05-08 22:38 61.77555 -5.22201 17836 ft 370 kts 275°
2026-05-08 22:38 61.78016 -5.27542 17277 ft 368 kts 276°
2026-05-08 22:38 61.78472 -5.32814 16774 ft 363 kts 276°
2026-05-08 22:39 61.78922 -5.38037 16282 ft 359 kts 276°
2026-05-08 22:39 61.79365 -5.43212 15774 ft 356 kts 276°
2026-05-08 22:39 61.79800 -5.48321 15280 ft 352 kts 276°
2026-05-08 22:39 61.80230 -5.53412 14795 ft 349 kts 276°
2026-05-08 22:40 61.80653 -5.58435 14322 ft 346 kts 276°
2026-05-08 22:40 61.81071 -5.63432 13848 ft 344 kts 276°
2026-05-08 22:40 61.81485 -5.68395 13327 ft 341 kts 276°
2026-05-08 22:40 61.81893 -5.73315 12848 ft 338 kts 275°
2026-05-08 22:41 61.82295 -5.78176 12360 ft 335 kts 276°
2026-05-08 22:41 61.82692 -5.83007 11889 ft 332 kts 276°
2026-05-08 22:41 61.83088 -5.87817 11423 ft 329 kts 276°
2026-05-08 22:41 61.83475 -5.92574 10960 ft 327 kts 275°
2026-05-08 22:42 61.83857 -5.97264 10755 ft 317 kts 276°
2026-05-08 22:42 61.84223 -6.01783 10595 ft 306 kts 275°
2026-05-08 22:42 61.84574 -6.06134 10468 ft 296 kts 275°
2026-05-08 22:42 61.84913 -6.10360 10340 ft 286 kts 276°
2026-05-08 22:43 61.85241 -6.14461 10222 ft 277 kts 275°
2026-05-08 22:43 61.85555 -6.18401 10109 ft 268 kts 275°
2026-05-08 22:43 61.85860 -6.22244 9997 ft 260 kts 275°
2026-05-08 22:43 61.86153 -6.25978 9746 ft 257 kts 275°
2026-05-08 22:44 61.86442 -6.29703 9469 ft 255 kts 275°
2026-05-08 22:44 61.86731 -6.33399 9192 ft 253 kts 275°
2026-05-08 22:44 61.87017 -6.37065 8929 ft 251 kts 275°
2026-05-08 22:44 61.87300 -6.40712 8661 ft 249 kts 275°
2026-05-08 22:45 61.87582 -6.44326 8395 ft 248 kts 275°
2026-05-08 22:45 61.87860 -6.47920 8127 ft 247 kts 275°
2026-05-08 22:45 61.88133 -6.51492 7865 ft 245 kts 275°
2026-05-08 22:45 61.88407 -6.55065 7596 ft 244 kts 275°
2026-05-08 22:46 61.88690 -6.58557 7323 ft 244 kts 278°
2026-05-08 22:46 61.89079 -6.62068 7047 ft 244 kts 280°
2026-05-08 22:46 61.89501 -6.65557 6768 ft 244 kts 280°
2026-05-08 22:46 61.89922 -6.69033 6518 ft 242 kts 280°
2026-05-08 22:47 61.90338 -6.72492 6249 ft 241 kts 281°
2026-05-08 22:47 61.90743 -6.75866 6034 ft 230 kts 279°
2026-05-08 22:47 61.91124 -6.79071 5930 ft 217 kts 279°
2026-05-08 22:47 61.91479 -6.82088 5842 ft 207 kts 280°
2026-05-08 22:48 61.91822 -6.85019 5756 ft 203 kts 279°
2026-05-08 22:48 61.92157 -6.87901 5676 ft 199 kts 280°
2026-05-08 22:48 61.92489 -6.90782 5616 ft 205 kts 279°
2026-05-08 22:48 61.92834 -6.93761 5419 ft 212 kts 280°
2026-05-08 22:49 61.93188 -6.96827 5200 ft 215 kts 281°
2026-05-08 22:49 61.93388 -7.02855 4702 ft 196 kts 238°
2026-05-08 22:49 61.92691 -7.05302 4557 ft 195 kts 236°
2026-05-08 22:50 61.91996 -7.07730 4541 ft 190 kts 237°
2026-05-08 22:50 61.91442 -7.10249 4482 ft 193 kts 262°
2026-05-08 22:50 61.91812 -7.13015 4481 ft 212 kts 304°
2026-05-08 22:50 61.92979 -7.15158 4221 ft 224 kts 320°
2026-05-08 22:51 61.94168 -7.17274 4012 ft 220 kts 308°
2026-05-08 22:51 61.94686 -7.20166 3660 ft 211 kts 274°
2026-05-08 22:51 61.94128 -7.23113 3455 ft 231 kts 238°
2026-05-08 22:51 61.92684 -7.24737 3446 ft 244 kts 196°
2026-05-08 22:52 61.91012 -7.24155 3457 ft 252 kts 153°
2026-05-08 22:52 61.89737 -7.21618 3489 ft 254 kts 127°
2026-05-08 22:52 61.88817 -7.18414 3446 ft 254 kts 100°
2026-05-08 22:52 61.88862 -7.14875 3860 ft 240 kts 71°
2026-05-08 22:53 61.89896 -7.12133 3650 ft 243 kts 32°
2026-05-08 22:53 61.91492 -7.11322 3547 ft 235 kts 352°
2026-05-08 22:53 61.92901 -7.12750 3503 ft 223 kts 310°
2026-05-08 22:53 61.93857 -7.15300 3508 ft 223 kts 308°
2026-05-08 22:54 61.94943 -7.17788 3272 ft 235 kts 314°
2026-05-08 22:54 61.96130 -7.20145 2861 ft 226 kts 315°
2026-05-08 22:54 61.96813 -7.22933 2805 ft 211 kts 281°
2026-05-08 22:54 61.97011 -7.25878 2470 ft 190 kts 303°
2026-05-08 22:55 61.97952 -7.27266 2479 ft 160 kts 349°
2026-05-08 22:55 61.98969 -7.26399 2254 ft 168 kts 28°
2026-05-08 22:55 61.99852 -7.25024 1934 ft 138 kts 356°
2026-05-08 22:55 62.00608 -7.25426 1829 ft 107 kts 334°
2026-05-08 22:56 62.01322 -7.24849 1706 ft 135 kts 32°
2026-05-08 22:56 62.02029 -7.23628 1440 ft 119 kts 355°
2026-05-08 22:56 62.02623 -7.24301 1222 ft 103 kts 290°
2026-05-08 22:56 62.02326 -7.26025 1186 ft 152 kts 235°
2026-05-08 22:57 62.01239 -7.26493 1226 ft 181 kts 174°
2026-05-08 22:57 62.00225 -7.24863 1238 ft 187 kts 121°
2026-05-08 22:57 61.99499 -7.22579 1231 ft 191 kts 124°
2026-05-08 22:57 61.99060 -7.19988 1285 ft 179 kts 76°
2026-05-08 22:58 61.99714 -7.17996 1405 ft 169 kts 25°
2026-05-08 22:58 62.00719 -7.16973 1262 ft 157 kts 28°
2026-05-08 22:58 62.01635 -7.15836 1184 ft 146 kts
2026-05-08 22:58 62.02542 -7.16346 1243 ft 146 kts 310°
2026-05-08 22:59 62.03091 -7.17947 1170 ft 0 kts 309°
2026-05-08 22:59 55.94801 -3.36634 105 ft 0 kts 89°